Mandan, ND

9:07 AM CST on December 16, 2017 (GMT -0600)
Mandan

Weather History for KY19 - April, 2014

Change the Weather History Date:

Thursday, April 10, 2014

  Actual Average (KBIS) Record (KBIS)
Temperature  
Mean Temperature 44 °F -  
Max Temperature 57 °F 52 °F 84 °F (1910)
Min Temperature 32 °F 29 °F 9 °F (1973)
Degree Days  
Heating Degree Days 20    
Moisture  
Dew Point 25 °F    
Average Humidity 47    
Maximum Humidity 75    
Minimum Humidity 25    
Precipitation  
Precipitation 0.00 in - - ()
Sea Level Pressure  
Sea Level Pressure 29.87 in    
Wind  
Wind Speed 12 mph (WNW)    
Max Wind Speed 21 mph    
Max Gust Speed 28 mph    
Visibility 10 miles    
Events      
Averages and records for this station are not official NWS values.
T = Trace of Precipitation, MM = Missing Value Source: NWS Daily Summary

Daily Weather History Graph

Daily Weather History Graph

Search for Another Location

Airport or City:

Trip Planner

Search our weather history database for the weather conditions in past years. The results will help you decide how hot, cold, wet, or windy it might be!

Date:

Astronomy

Apr. 10, 2014 Rise Set
Actual Time 7:05 AM CDT 8:25 PM CDT
Civil Twilight 6:34 AM CDT 8:56 PM CDT
Nautical Twilight 5:56 AM CDT 9:34 PM CDT
Astronomical Twilight 5:15 AM CDT 10:15 PM CDT
Moon 3:55 PM CDT (4/10) 4:45 AM CDT (4/10)
Length of Visible Light 14h 22m
Length of Day
13h 19m
Waxing Gibbous, 80% of the Moon is Illuminated
Apr 10
Waxing Gibbous
Apr 15
Full
Apr 22
Last Quarter
Apr 29
New
May 6
First Quarter

Hourly Weather History & Observations

Time (CDT) Temp. Windchill Dew Point Humidity Pressure Visibility Wind Dir Wind Speed Gust Speed Precip Events Conditions
12:35 AM 35.6 °F 28.0 °F 28.4 °F 75% 29.79 in 10.0 mi West 10.4 mph - N/A   Clear
12:55 AM 35.6 °F 27.5 °F 28.4 °F 75% 29.79 in 10.0 mi WNW 11.5 mph - N/A   Clear
1:15 AM 35.6 °F 27.5 °F 28.4 °F 75% 29.80 in 10.0 mi WNW 11.5 mph 16.1 mph N/A   Clear
1:35 AM 39.2 °F 31.6 °F 26.6 °F 61% 29.81 in 10.0 mi WNW 12.7 mph - N/A   Clear
2:15 AM 37.4 °F 28.9 °F 24.8 °F 60% 29.81 in 10.0 mi WNW 13.8 mph - N/A   Clear
2:35 AM 37.4 °F 28.9 °F 24.8 °F 60% 29.82 in 10.0 mi WNW 13.8 mph - N/A   Clear
2:55 AM 37.4 °F 29.3 °F 24.8 °F 60% 29.83 in 10.0 mi WNW 12.7 mph 18.4 mph N/A   Clear
3:15 AM 37.4 °F 29.3 °F 24.8 °F 60% 29.83 in 10.0 mi WNW 12.7 mph - N/A   Clear
3:35 AM 35.6 °F 27.5 °F 23.0 °F 60% 29.83 in 10.0 mi WNW 11.5 mph - N/A   Clear
3:55 AM 32.0 °F 23.6 °F 23.0 °F 69% 29.84 in 10.0 mi West 10.4 mph - N/A   Clear
4:15 AM 32.0 °F 23.0 °F 23.0 °F 69% 29.85 in 10.0 mi West 11.5 mph - N/A   Clear
4:35 AM 33.8 °F 24.3 °F 23.0 °F 65% 29.85 in 10.0 mi West 13.8 mph - N/A   Clear
4:55 AM 33.8 °F 24.3 °F 23.0 °F 65% 29.85 in 10.0 mi West 13.8 mph - N/A   Clear
5:15 AM 33.8 °F 24.3 °F 23.0 °F 65% 29.85 in 10.0 mi West 13.8 mph - N/A   Clear
5:35 AM 32.0 °F 22.1 °F 23.0 °F 69% 29.86 in 10.0 mi West 13.8 mph - N/A   Clear
5:55 AM 32.0 °F 22.5 °F 23.0 °F 69% 29.86 in 10.0 mi West 12.7 mph - N/A   Clear
6:15 AM 32.0 °F 23.0 °F 23.0 °F 69% 29.87 in 10.0 mi West 11.5 mph - N/A   Clear
6:35 AM 32.0 °F 22.5 °F 24.8 °F 75% 29.87 in 10.0 mi West 12.7 mph - N/A   Clear
7:15 AM 32.0 °F 21.6 °F 23.0 °F 69% 29.88 in 10.0 mi West 15.0 mph - N/A   Clear
7:35 AM 33.8 °F 24.3 °F 24.8 °F 70% 29.88 in 10.0 mi West 13.8 mph - N/A   Clear
7:55 AM 33.8 °F 24.3 °F 24.8 °F 70% 29.89 in 10.0 mi West 13.8 mph - N/A   Clear
8:15 AM 35.6 °F 26.6 °F 24.8 °F 65% 29.90 in 10.0 mi West 13.8 mph - N/A   Clear
8:35 AM 37.4 °F 28.2 °F 24.8 °F 60% 29.90 in 10.0 mi West 16.1 mph 20.7 mph N/A   Clear
8:55 AM 39.2 °F 31.2 °F 26.6 °F 61% 29.91 in 10.0 mi West 13.8 mph - N/A   Clear
9:15 AM 41.0 °F 32.8 °F 26.6 °F 57% 29.91 in 10.0 mi West 16.1 mph 20.7 mph N/A   Clear
9:35 AM 42.8 °F 35.4 °F 26.6 °F 53% 29.91 in 10.0 mi West 15.0 mph - N/A   Clear
9:55 AM 44.6 °F 37.8 °F 26.6 °F 49% 29.91 in 10.0 mi West 15.0 mph - N/A   Clear
10:15 AM 44.6 °F 38.1 °F 26.6 °F 49% 29.91 in 10.0 mi WNW 13.8 mph - N/A   Clear
10:35 AM 46.4 °F 39.2 °F 26.6 °F 46% 29.91 in 10.0 mi West 18.4 mph 23.0 mph N/A   Clear
10:55 AM 46.4 °F 39.0 °F 26.6 °F 46% 29.92 in 10.0 mi West 19.6 mph - N/A   Clear
11:15 AM 50.0 °F - 26.6 °F 40% 29.92 in 10.0 mi WNW 13.8 mph - N/A   Clear
11:35 AM 50.0 °F - 24.8 °F 37% 29.92 in 10.0 mi WNW 17.3 mph - N/A   Clear
11:55 AM 51.8 °F - 24.8 °F 35% 29.92 in 10.0 mi WNW 19.6 mph 25.3 mph N/A   Clear
12:15 PM 51.8 °F - 19.4 °F 28% 29.91 in 10.0 mi WNW 20.7 mph 26.5 mph N/A   Clear
12:35 PM 53.6 °F - 23.0 °F 30% 29.91 in 10.0 mi WNW 17.3 mph 27.6 mph N/A   Clear
12:55 PM 53.6 °F - 23.0 °F 30% 29.90 in 10.0 mi West 17.3 mph 24.2 mph N/A   Clear
1:15 PM 55.4 °F - 21.2 °F 26% 29.90 in 10.0 mi WNW 16.1 mph 23.0 mph N/A   Partly Cloudy
1:35 PM 55.4 °F - 23.0 °F 29% 29.90 in 10.0 mi NW 16.1 mph 23.0 mph N/A   Clear
1:55 PM 55.4 °F - 21.2 °F 26% 29.89 in 10.0 mi WNW 13.8 mph 25.3 mph N/A   Scattered Clouds
2:15 PM 55.4 °F - 21.2 °F 26% 29.89 in 10.0 mi WNW 11.5 mph 20.7 mph N/A   Overcast
2:35 PM 53.6 °F - 21.2 °F 28% 29.89 in 10.0 mi WNW 15.0 mph 21.9 mph N/A   Mostly Cloudy
2:55 PM 57.2 °F - 24.8 °F 29% 29.88 in 10.0 mi WNW 13.8 mph 23.0 mph N/A   Mostly Cloudy
3:15 PM 57.2 °F - 24.8 °F 29% 29.87 in 10.0 mi West 16.1 mph 23.0 mph N/A   Overcast
3:35 PM 57.2 °F - 23.0 °F 27% 29.87 in 10.0 mi NW 9.2 mph 23.0 mph N/A   Scattered Clouds
3:55 PM 57.2 °F - 24.8 °F 29% 29.86 in 10.0 mi WNW 13.8 mph 21.9 mph N/A   Clear
4:15 PM 57.2 °F - 23.0 °F 27% 29.85 in 10.0 mi West 5.8 mph - N/A   Partly Cloudy
4:35 PM 57.2 °F - 23.0 °F 27% 29.84 in 10.0 mi NNW 10.4 mph 17.3 mph N/A   Partly Cloudy
4:55 PM 57.2 °F - 23.0 °F 27% 29.83 in 10.0 mi NW 9.2 mph - N/A   Mostly Cloudy
5:15 PM 57.2 °F - 23.0 °F 27% 29.82 in 10.0 mi WNW 8.1 mph - N/A   Scattered Clouds
5:35 PM 57.2 °F - 23.0 °F 27% 29.82 in 10.0 mi WNW 5.8 mph - N/A   Scattered Clouds
5:55 PM 57.2 °F - 21.2 °F 25% 29.82 in 10.0 mi Calm Calm - N/A   Mostly Cloudy
6:15 PM 57.2 °F - 23.0 °F 27% 29.82 in 10.0 mi Calm Calm - N/A   Mostly Cloudy
6:35 PM 55.4 °F - 24.8 °F 31% 29.82 in 10.0 mi NNE 8.1 mph - N/A   Overcast
6:55 PM 53.6 °F - 24.8 °F 33% 29.82 in 10.0 mi NE 6.9 mph - N/A   Overcast
7:15 PM 53.6 °F - 23.0 °F 30% 29.82 in 10.0 mi NNE 5.8 mph - N/A   Mostly Cloudy
7:35 PM 53.6 °F - 24.8 °F 33% 29.82 in 10.0 mi NNE 4.6 mph - N/A   Overcast
7:55 PM 51.8 °F - 24.8 °F 35% 29.83 in 10.0 mi Calm Calm - N/A   Mostly Cloudy
8:15 PM 50.0 °F - 24.8 °F 37% 29.83 in 10.0 mi NNE 6.9 mph - N/A   Overcast
8:35 PM 50.0 °F - 26.6 °F 40% 29.85 in 10.0 mi Calm Calm - N/A   Overcast
8:55 PM 48.2 °F - 26.6 °F 43% 29.86 in 10.0 mi North 4.6 mph - N/A   Overcast
9:15 PM 48.2 °F - 26.6 °F 43% 29.87 in 10.0 mi North 6.9 mph - N/A   Overcast
9:35 PM 48.2 °F - 24.8 °F 40% 29.87 in 10.0 mi NNE 6.9 mph - N/A   Overcast
9:55 PM 48.2 °F - 24.8 °F 40% 29.88 in 10.0 mi NNE 5.8 mph - N/A   Overcast
10:15 PM 48.2 °F - 24.8 °F 40% 29.88 in 10.0 mi ENE 3.5 mph - N/A   Overcast
10:35 PM 44.6 °F - 26.6 °F 49% 29.89 in 10.0 mi Calm Calm - N/A   Overcast
10:55 PM 46.4 °F 45.2 °F 26.6 °F 46% 29.90 in 10.0 mi NNE 3.5 mph - N/A   Overcast
11:15 PM 46.4 °F 43.5 °F 26.6 °F 46% 29.89 in 10.0 mi NE 5.8 mph - N/A   Overcast
11:35 PM 46.4 °F 42.9 °F 26.6 °F 46% 29.90 in 10.0 mi NE 6.9 mph - N/A   Overcast
11:55 PM 46.4 °F 42.4 °F 26.6 °F 46% 29.89 in 10.0 mi East 8.1 mph - N/A   Mostly Cloudy